Location: Oberkirch
(48.5323°N, 8.0787°E)
Time: 16:12:47
(UTC+00:00)

Tiros 1 despin weight - Pass Details

Date: 11 February 2026
Orbit: 556 x 593 km, 48.2° (Epoch: 8 March)

Event Time Altitude Azimuth Distance (km) Brightness Sun altitude
Rises 20:09:55 0° 273° (W) 2,735 ? -34.5°
Reaches altitude 10° 20:12:09 10° 273° (W) 1,842 ? -34.8°
Enters shadow 20:12:54 15° 273° (W) 1,552 ? -34.9°
